Location: Milevsko
(49.4500°N, 14.3670°E)
Time: 13:20:07
(UTC+01:00)

ISS - Pass Details

Date: 07 December 2018
Orbit: 401 x 408 km, 51.6° (Epoch: 16 December)

Event Time Altitude Azimuth Distance (km) Brightness Sun altitude
Rises 18:27:47 0° 289° (WNW) 2,319 1.0 -22.4°
Reaches altitude 10° 18:29:53 10° 286° (WNW) 1,457 -0.1 -22.7°
Enters shadow 18:32:19 44° 266° (W) 565 -2.7 -23.1°
